Location: Newark
(52.4787°S, 179.0532°W)
Time: 00:01:18
(UTC+00:00)

Transit 2A Rocket - Pass Details

Date: 24 November 2019
Orbit: 594 x 909 km, 66.7° (Epoch: 15 December)

Event Time Altitude Azimuth Distance (km) Brightness Sun altitude
Rises 23:18:08 0° 265° (W) 3,473 8.3 57.8°
Reaches altitude 10° 23:21:04 10° 252° (WSW) 2,573 7.7 57.9°
Maximum altitude 23:25:59 25° 197° (SSW) 1,765 6.9 58.0°
Drops below altitude 10° 23:30:59 10° 143° (SE) 2,628 7.6 58.1°
Sets 23:34:02 0° 130° (SE) 3,563 8.3 58.1°
